[[{"header":{"parameterUnit":"m.s-1","parameterCategory":1,"la1":30.2991,"la2":30.254,"lo1":-89.0895,"lo2":-89.0444,"dy":0.0017,"dx":0.0017,"nx":28,"ny":28,"refTime":"2023-09-15T03:00:00:Z","depth":0,"parameterNumber":2,"parameterNumberName":"U-component_of_WINDS"},"data":[0,0,0,0,0,0,0,0,0,0,0,0,0,0,0,0,0,0,0,0,0,0,0,0,0,0,0,0,0,0,0,0,0,0,0,0,0,0,0,0,0,0,0,0,0,0,0,0,0,0,0,0,0,0,0,0,0,0,1.1109,1.1109,0,1.1112,1.1112,1.1112,1.1064,1.1063,1.1062,1.1061,1.1062,1.1063,1.1065,0,0,0,0,0,0,0,0,0,0,0,0,0,1.1063,1.1065,1.1109,1.1109,1.111,1.1112,1.1112,1.1112,1.1065,1.1063,1.1061,1.106,1.1062,1.1063,1.1065,0,0,0,0,0,0,0,0,0,0,0,0,0,1.1076,1.1065,1.1109,1.1086,1.1084,1.1112,1.1112,1.1112,1.1065,1.1063,1.1061,1.1059,1.1061,1.1063,1.1065,1.1114,0,0,1.107,1.1071,0,0,0,0,0,0,0,0,1.1076,1.1078,1.109,1.1088,1.1086,1.1086,1.1096,1.1113,1.1065,1.1072,1.1061,1.1058,1.1071,1.1072,1.1077,1.1115,1.1115,1.1071,1.1072,1.1073,1.1073,0,0,0,0,0,0,0,1.1075,1.1078,1.111,1.109,1.1087,1.1075,1.1075,1.1099,1.1082,1.1071,1.1068,1.1069,1.107,1.1075,1.1077,1.1115,1.1071,1.1072,1.1073,1.1074,1.1193,1.1195,0,0,0,0,0,0,1.1077,1.1077,1.111,1.111,1.1076,1.1078,1.1078,1.1088,1.1082,1.1079,1.1071,1.1067,1.1073,1.1075,1.1077,1.1134,1.1073,1.1074,1.1075,1.1191,1.1194,1.1196,0,0,0,0,0,0,1.1076,1.1081,1.111,1.1093,1.1096,1.1081,1.1092,1.1089,1.1094,1.1082,1.1078,1.1079,1.1072,1.1074,1.1105,1.1134,1.1075,1.1077,1.1189,1.1192,1.1195,1.125,0,0,0,0,0,0,1.1075,1.1081,1.1099,1.1094,1.1097,1.1139,1.1094,1.109,1.1097,1.1092,1.1089,1.1086,1.107,1.1103,1.1107,1.1135,1.1078,1.1186,1.119,1.1194,1.1246,1.1255,1.1262,0,0,0,0,0,1.1074,1.1115,1.1101,1.1105,1.112,1.1141,1.1143,1.1124,1.11,1.1118,1.1111,1.1086,1.113,1.1107,1.1111,1.114,1.1184,1.1189,1.1194,1.1242,1.1253,1.1262,0,0,0,0,0,0,1.1123,1.1113,1.1098,1.1138,1.1141,1.1133,1.1156,1.1136,1.1146,1.1141,1.1117,1.1116,1.1152,1.1149,1.1123,1.1188,1.1153,1.1159,1.1188,1.1198,1.1207,1.1206,1.108,0,0,0,0,0,1.1139,1.1157,1.1147,1.1184,1.1186,1.1171,1.1179,1.1165,1.1167,1.1167,1.1162,1.1164,1.1179,1.1188,1.1201,1.1245,1.1244,1.1267,1.1276,1.1283,1.1288,1.1311,1.1321,1.1211,1.1211,1.1211,0,0,1.1171,1.1168,1.1181,1.1194,1.1194,1.1213,1.1172,1.1194,1.1208,1.1171,1.12,1.1196,1.1198,1.1236,1.1252,1.1235,1.1318,1.1289,1.1294,1.1295,1.1317,1.1327,1.1336,1.1214,1.1214,1.1213,0,0,1.124,1.1239,1.127,1.1271,1.1273,1.1263,1.127,1.1266,1.1262,1.1291,1.1264,1.128,1.1305,1.1307,1.1311,1.1382,1.136,1.1387,1.143,1.1453,1.1462,1.1469,1.1494,1.1503,1.1392,1.1392,1.1392,0,1.1279,1.1307,1.1287,1.1311,1.1318,1.1286,1.1316,1.1319,1.1324,1.1329,1.131,1.1341,1.1339,1.1378,1.1395,1.14,1.1407,1.1387,1.1462,1.147,1.1476,1.15,1.1509,1.1396,1.1395,1.1395,1.1395,0,1.1356,1.1376,1.14,1.1407,1.1416,1.1443,1.1427,1.1439,1.1424,1.1416,1.1447,1.1444,1.1456,1.1464,1.1449,1.15,1.1489,1.1467,1.1431,1.149,1.1512,1.1521,1.14,1.1399,1.1398,1.1397,0,0,1.1454,1.1451,1.146,1.1462,1.1462,1.1477,1.1503,1.1515,1.1525,1.1531,1.1551,1.1574,1.1553,1.1558,1.1544,1.1564,1.162,1.1538,1.1538,1.1553,1.1676,1.1692,1.1703,1.1606,1.1607,1.1609,1.1675,0,1.152,1.1564,1.1548,1.1593,1.1611,1.1582,1.1604,1.1606,1.16,1.1614,1.1607,1.1623,1.1595,1.1597,1.1616,1.1609,1.1644,1.1604,1.1624,1.1625,1.1624,1.1714,1.1732,1.1795,1.1684,1.1685,1.1686,0,1.1603,1.1612,1.1659,1.1657,1.1664,1.1684,1.1694,1.1708,1.171,1.1704,1.1711,1.1692,1.1717,1.1682,1.1716,1.169,1.1697,1.1695,1.1697,1.1697,1.1659,1.1717,1.1815,1.1824,1.1699,1.1698,1.1697,0,1.1669,1.1694,1.1725,1.1728,1.1726,1.1741,1.1741,1.1741,1.175,1.1758,1.1763,1.1775,1.1781,1.179,1.1775,1.1751,1.1811,1.1775,1.1806,1.1807,1.1819,1.1819,1.1919,1.1826,1.1826,1.1825,1.1825,0,1.1744,1.1774,1.1755,1.1774,1.1807,1.1788,1.182,1.1817,1.1818,1.1836,1.1811,1.1828,1.1808,1.1823,1.1812,1.1841,1.1844,1.184,1.1836,1.1842,1.1842,1.1845,1.184,1.1828,1.1827,1.1827,1.1827,0,1.1823,1.1812,1.1844,1.184,1.1839,1.1863,1.186,1.1877,1.187,1.1893,1.1897,1.1885,1.1902,1.1888,1.1904,1.1896,1.1936,1.1926,1.1935,1.1932,1.1964,1.1961,1.2069,1.2083,1.1981,1.1982,1.1983,0,1.1871,1.1894,1.1892,1.1903,1.1904,1.1921,1.193,1.1913,1.1923,1.1927,1.1944,1.1959,1.197,1.1999,1.1991,1.2003,1.1994,1.2031,1.1995,1.2,1.1993,1.1992,1.1994,1.2038,1.2039,1.204,1.2041,0,1.1958,1.1951,1.1965,1.1977,1.1988,1.1996,1.2003,1.2013,1.1995,1.2007,1.2025,1.2033,1.205,1.2065,1.2076,1.2075,1.2055,1.2052,1.206,1.2065,1.2069,1.2067,1.1954,1.205,1.2049,1.2048,1.2048,1.2047,1.2022,1.2041,1.2043,1.2059,1.2063,1.2069,1.2086,1.2081,1.2095,1.2107,1.2097,1.2117,1.2119,1.2131,1.2133,1.2149,1.2133,1.2145,1.2147,1.215,1.2154,1.2068,1.2151,1.215,1.215,1.215,1.215,0,1.2107,1.2107,1.2123,1.2133,1.2145,1.2127,1.2133,1.2145,1.2163,1.2167,1.2179,1.2199,1.2214,1.2208,1.2221,1.2235,1.2226,1.2239,1.2237,1.2237,1.2168,1.216,1.2245,1.2245,1.2245,1.2245,1.2245,1.2245,1.2153,1.2183,1.2177,1.2209,1.2209,1.2229,1.2235,1.2241,1.2244,1.2268,1.228,1.2276,1.2276,1.2289,1.2302,1.23,1.2305,1.2321,1.2316,1.2251,1.2242,1.2233,1.2225,1.2323,1.2323,1.2384,1.2384,1.2385]},{"header":{"parameterUnit":"m.s-1","parameterCategory":1,"la1":30.2991,"la2":30.254,"lo1":-89.0895,"lo2":-89.0444,"dy":0.0017,"dx":0.0017,"nx":28,"ny":28,"refTime":"2023-09-15T03:00:00:Z","depth":0,"parameterNumber":3,"parameterNumberName":"V-component_of_WINDS"},"data":[0,0,0,0,0,0,0,0,0,0,0,0,0,0,0,0,0,0,0,0,0,0,0,0,0,0,0,0,0,0,0,0,0,0,0,0,0,0,0,0,0,0,0,0,0,0,0,0,0,0,0,0,0,0,0,0,0,0,-0.481,-0.481,0,-0.4877,-0.4878,-0.4878,-0.4932,-0.4933,-0.4933,-0.4934,-0.5003,-0.5005,-0.5006,0,0,0,0,0,0,0,0,0,0,0,0,0,-0.4728,-0.4729,-0.481,-0.481,-0.4811,-0.4877,-0.4878,-0.4879,-0.4932,-0.4933,-0.4933,-0.4934,-0.5003,-0.5004,-0.5006,0,0,0,0,0,0,0,0,0,0,0,0,0,-0.4776,-0.473,-0.4809,-0.4846,-0.485,-0.4876,-0.4878,-0.4879,-0.4932,-0.4933,-0.4933,-0.4934,-0.5002,-0.5004,-0.5006,-0.5003,0,0,-0.5013,-0.5013,0,0,0,0,0,0,0,0,-0.4773,-0.4779,-0.484,-0.4843,-0.4848,-0.4897,-0.4875,-0.492,-0.4932,-0.4901,-0.4934,-0.4935,-0.4967,-0.4972,-0.4983,-0.5006,-0.5009,-0.5013,-0.5014,-0.5015,-0.5015,0,0,0,0,0,0,0,-0.477,-0.4777,-0.4836,-0.484,-0.4845,-0.4859,-0.4867,-0.4883,-0.4929,-0.4903,-0.4907,-0.4915,-0.497,-0.4981,-0.4985,-0.501,-0.5013,-0.5014,-0.5016,-0.5017,-0.5033,-0.5033,0,0,0,0,0,0,-0.4761,-0.4773,-0.4834,-0.4838,-0.4812,-0.486,-0.4868,-0.488,-0.4929,-0.4937,-0.4914,-0.4917,-0.4977,-0.4983,-0.4988,-0.4986,-0.5015,-0.5017,-0.5018,-0.5034,-0.5033,-0.5032,0,0,0,0,0,0,-0.4759,-0.4766,-0.4831,-0.4807,-0.4816,-0.486,-0.4873,-0.4881,-0.4893,-0.4937,-0.4945,-0.4917,-0.4978,-0.4985,-0.4999,-0.499,-0.5018,-0.502,-0.5035,-0.5034,-0.5033,-0.4984,0,0,0,0,0,0,-0.4756,-0.4765,-0.4764,-0.4807,-0.4817,-0.484,-0.4873,-0.4882,-0.4896,-0.49,-0.4942,-0.4949,-0.4979,-0.4995,-0.5001,-0.4993,-0.5021,-0.5036,-0.5034,-0.5033,-0.4986,-0.4981,-0.4976,0,0,0,0,0,-0.4753,-0.4747,-0.4763,-0.477,-0.4817,-0.484,-0.4846,-0.488,-0.4895,-0.4894,-0.4922,-0.4948,-0.499,-0.4996,-0.5003,-0.4995,-0.5037,-0.5035,-0.5033,-0.4988,-0.4982,-0.4976,0,0,0,0,0,0,-0.4703,-0.4754,-0.4772,-0.478,-0.4805,-0.4849,-0.4849,-0.4872,-0.4894,-0.4898,-0.4939,-0.4948,-0.4957,-0.4978,-0.4984,-0.4994,-0.5017,-0.5016,-0.498,-0.4975,-0.497,-0.4964,-0.5023,0,0,0,0,0,-0.4692,-0.4706,-0.4751,-0.4753,-0.4765,-0.4804,-0.4816,-0.484,-0.4868,-0.4879,-0.4908,-0.4935,-0.4954,-0.4966,-0.4986,-0.499,-0.4999,-0.4988,-0.4983,-0.4979,-0.4978,-0.4981,-0.4976,-0.5027,-0.5027,-0.5027,0,0,-0.4671,-0.4701,-0.4707,-0.4744,-0.4766,-0.478,-0.4813,-0.4826,-0.4837,-0.4881,-0.4895,-0.4918,-0.495,-0.4959,-0.4964,-0.4976,-0.4966,-0.4977,-0.4973,-0.4974,-0.4979,-0.4974,-0.497,-0.5025,-0.5026,-0.5026,0,0,-0.4639,-0.4664,-0.4668,-0.469,-0.4723,-0.475,-0.4751,-0.4791,-0.4808,-0.4823,-0.4856,-0.4869,-0.4902,-0.4923,-0.4938,-0.4915,-0.4939,-0.492,-0.4894,-0.4897,-0.4893,-0.489,-0.488,-0.4877,-0.4919,-0.4919,-0.4919,0,-0.4609,-0.4631,-0.4667,-0.4678,-0.4693,-0.4734,-0.4739,-0.4758,-0.4796,-0.4806,-0.4819,-0.486,-0.4885,-0.4899,-0.4893,-0.4904,-0.4907,-0.4915,-0.489,-0.4887,-0.4885,-0.4877,-0.4873,-0.4916,-0.4917,-0.4917,-0.4917,0,-0.4591,-0.4606,-0.4605,-0.4641,-0.4656,-0.4664,-0.4702,-0.4713,-0.4736,-0.4761,-0.4776,-0.4807,-0.4833,-0.4839,-0.4862,-0.4856,-0.4863,-0.4883,-0.4905,-0.4877,-0.487,-0.4867,-0.4913,-0.4914,-0.4914,-0.4915,0,0,-0.4529,-0.4584,-0.4583,-0.46,-0.464,-0.4652,-0.4662,-0.4688,-0.4696,-0.4721,-0.473,-0.4757,-0.4776,-0.4793,-0.4818,-0.4821,-0.4799,-0.4841,-0.4842,-0.4831,-0.4795,-0.4778,-0.4774,-0.4816,-0.4816,-0.4815,-0.4792,0,-0.4503,-0.4522,-0.4555,-0.4564,-0.4578,-0.4616,-0.4625,-0.465,-0.4674,-0.469,-0.4717,-0.4734,-0.4758,-0.4768,-0.4773,-0.4801,-0.4792,-0.4803,-0.4825,-0.4825,-0.4814,-0.4771,-0.4754,-0.473,-0.4789,-0.4789,-0.4788,0,-0.4474,-0.4497,-0.4506,-0.4545,-0.4552,-0.4559,-0.4586,-0.46,-0.463,-0.4647,-0.4666,-0.4694,-0.4707,-0.4728,-0.4746,-0.4753,-0.4764,-0.4779,-0.4779,-0.4781,-0.4804,-0.4771,-0.4723,-0.4719,-0.4785,-0.4785,-0.4785,0,-0.4427,-0.4459,-0.4469,-0.4482,-0.4528,-0.4532,-0.4551,-0.4582,-0.4595,-0.4619,-0.4628,-0.4652,-0.4666,-0.4684,-0.4718,-0.4731,-0.4732,-0.4757,-0.4747,-0.4746,-0.4744,-0.4744,-0.4696,-0.4753,-0.4753,-0.4753,-0.4753,0,-0.4393,-0.4397,-0.4448,-0.4454,-0.446,-0.4499,-0.4504,-0.4527,-0.4554,-0.4565,-0.4601,-0.4611,-0.4656,-0.4671,-0.4698,-0.4708,-0.4714,-0.4728,-0.4735,-0.4724,-0.4722,-0.4731,-0.4734,-0.4752,-0.4752,-0.4752,-0.4753,0,-0.434,-0.4375,-0.4388,-0.443,-0.4441,-0.4443,-0.448,-0.4487,-0.4513,-0.4527,-0.4532,-0.4573,-0.4593,-0.4629,-0.4659,-0.4678,-0.4682,-0.4695,-0.4671,-0.4676,-0.4663,-0.4663,-0.4619,-0.4615,-0.4675,-0.4674,-0.4673,0,-0.4316,-0.432,-0.4363,-0.4373,-0.439,-0.4406,-0.442,-0.4458,-0.4471,-0.4506,-0.4509,-0.4531,-0.4551,-0.4581,-0.4614,-0.4637,-0.465,-0.4633,-0.4654,-0.4642,-0.4649,-0.4647,-0.4648,-0.4627,-0.4627,-0.4626,-0.4625,0,-0.427,-0.4286,-0.4305,-0.4328,-0.4344,-0.4365,-0.4388,-0.4394,-0.4438,-0.445,-0.4471,-0.4486,-0.4517,-0.4538,-0.4566,-0.4587,-0.4613,-0.4619,-0.4617,-0.4606,-0.4592,-0.4598,-0.4657,-0.4619,-0.462,-0.462,-0.4621,-0.4621,-0.423,-0.4235,-0.4265,-0.4285,-0.4306,-0.4326,-0.4335,-0.4362,-0.438,-0.4407,-0.4429,-0.4448,-0.4478,-0.4518,-0.4537,-0.4552,-0.4565,-0.4563,-0.4562,-0.4561,-0.4556,-0.459,-0.4558,-0.4558,-0.4558,-0.4558,-0.4558,0,-0.4184,-0.4206,-0.4223,-0.4253,-0.4268,-0.4292,-0.4318,-0.4329,-0.4345,-0.4371,-0.4389,-0.4413,-0.4434,-0.4469,-0.4493,-0.4498,-0.4511,-0.4503,-0.4503,-0.4507,-0.4544,-0.4543,-0.4493,-0.4493,-0.4493,-0.4493,-0.4493,-0.4493,-0.4162,-0.4172,-0.4192,-0.4213,-0.4235,-0.4253,-0.4266,-0.4285,-0.4305,-0.4329,-0.4347,-0.437,-0.4399,-0.4426,-0.4446,-0.4456,-0.4463,-0.4451,-0.4464,-0.4498,-0.4504,-0.451,-0.4509,-0.4452,-0.4452,-0.4426,-0.4425,-0.4425]}]]